EW3197 Weather Reports


Display with metric or nautical units.
time (UTC)temp
F
wind
direction
speed
MPH
gust
MPH
rain 1hr
in
rain 24hr
in
rain mn
in
humidity
%
barometer
mb
20260505001704 62 205 1.0 2.0 0.00 0.00 0.00 51 1007.6
20260505001204 63 205 0.0 0.0 0.00 0.00 0.00 50 1007.6
20260505000704 65 205 0.0 2.0 0.00 0.00 0.00 47 1007.6
20260505000204 66 205 0.0 3.0 0.00 0.00 0.00 43 1007.6
20260504235704 65 217 3.0 10.0 0.00 0.00 0.00 45 1007.6
20260504235204 65 216 0.0 0.0 0.00 0.00 0.00 47 1007.5
20260504234704 65 216 0.0 0.0 0.00 0.00 0.00 44 1007.4
20260504234204 66 216 0.0 0.0 0.00 0.00 0.00 42 1007.4
20260504233704 67 216 1.0 7.0 0.00 0.00 0.00 41 1007.4
20260504233204 68 228 1.0 2.0 0.00 0.00 0.00 41 1007.3
20260504232204 68 178 3.0 5.0 0.00 0.00 0.00 40 1007.4
20260504231704 69 162 2.0 3.0 0.00 0.00 0.00 39 1007.3
20260504231204 69 147 1.0 3.0 0.00 0.00 0.00 39 1007.2
20260504230704 69 263 1.0 3.0 0.00 0.00 0.00 38 1007.1
20260504225704 69 226 0.0 3.0 0.00 0.00 0.00 39 1006.9
20260504224704 69 225 2.0 8.0 0.00 0.00 0.00 38 1006.8
20260504224204 69 126 1.0 5.0 0.00 0.00 0.00 39 1006.7
20260504222704 70 205 3.0 10.0 0.00 0.00 0.00 37 1006.9
20260504222204 70 199 1.0 6.0 0.00 0.00 0.00 38 1006.9
20260504221704 70 214 2.0 6.0 0.00 0.00 0.00 36 1006.8
20260504221204 70 194 5.0 12.0 0.00 0.00 0.00 36 1006.8
20260504220704 70 210 2.0 9.0 0.00 0.00 0.00 36 1007.0
20260504220204 71 209 3.0 12.0 0.00 0.00 0.00 37 1007.1
20260504215704 70 178 2.0 14.0 0.00 0.00 0.00 36 1007.1
20260504215203 71 213 5.0 15.0 0.00 0.00 0.00 36 1007.0
20260504214703 71 193 2.0 6.0 0.00 0.00 0.00 36 1007.1
20260504214203 71 203 2.0 8.0 0.00 0.00 0.00 35 1007.1
20260504213204 72 209 2.0 6.0 0.00 0.00 0.00 35 1007.1
20260504212703 72 212 2.0 10.0 0.00 0.00 0.00 36 1007.1
20260504212204 71 252 5.0 12.0 0.00 0.00 0.00 37 1007.2
20260504211704 72 210 3.0 10.0 0.00 0.00 0.00 35 1007.2
20260504210704 71 216 2.0 6.0 0.00 0.00 0.00 36 1007.3
20260504210205 71 207 3.0 9.0 0.00 0.00 0.00 38 1007.3
20260504204704 70 185 5.0 12.0 0.00 0.00 0.00 37 1007.5
20260504204204 70 233 2.0 5.0 0.00 0.00 0.00 37 1007.4
20260504203703 70 218 3.0 7.0 0.00 0.00 0.00 37 1007.4
20260504203204 70 208 4.0 8.0 0.00 0.00 0.00 36 1007.4
20260504202704 69 201 3.0 13.0 0.00 0.00 0.00 36 1007.5
20260504202203 70 222 4.0 17.0 0.00 0.00 0.00 36 1007.5
20260504201704 70 204 3.0 6.0 0.00 0.00 0.00 39 1007.5
20260504200704 71 226 3.0 12.0 0.00 0.00 0.00 37 1007.7
20260504200204 71 216 2.0 10.0 0.00 0.00 0.00 39 1007.7
20260504195704 70 222 4.0 9.0 0.00 0.00 0.00 37 1007.7
20260504195204 69 178 2.0 8.0 0.00 0.00 0.00 39 1007.8
20260504194704 69 240 4.0 8.0 0.00 0.00 0.00 37 1007.8
20260504194204 69 216 4.0 10.0 0.00 0.00 0.00 37 1007.8
20260504193705 69 212 3.0 12.0 0.00 0.00 0.00 38 1008.0
20260504193204 70 208 5.0 10.0 0.00 0.00 0.00 37 1008.0
20260504192704 70 212 5.0 12.0 0.00 0.00 0.00 36 1007.9
20260504192204 70 227 3.0 9.0 0.00 0.00 0.00 36 1007.9
20260504191204 70 209 4.0 9.0 0.00 0.00 0.00 36 1008.0
20260504190705 70 162 6.0 12.0 0.00 0.00 0.00 36 1008.0
20260504185704 72 204 6.0 12.0 0.00 0.00 0.00 35 1008.1
20260504185204 73 225 3.0 9.0 0.00 0.00 0.00 38 1008.0
20260504184704 71 204 4.0 12.0 0.00 0.00 0.00 36 1008.0
20260504184204 70 211 3.0 12.0 0.00 0.00 0.00 37 1008.1
20260504182704 70 183 4.0 9.0 0.00 0.00 0.00 39 1008.1
20260504182203 71 209 7.0 12.0 0.00 0.00 0.00 35 1008.2
20260504181705 71 215 3.0 7.0 0.00 0.00 0.00 37 1008.1
20260504181204 71 187 3.0 7.0 0.00 0.00 0.00 36 1008.2
20260504180704 71 205 6.0 13.0 0.00 0.00 0.00 36 1008.4
20260504180204 71 214 3.0 13.0 0.00 0.00 0.00 37 1008.3
20260504175704 70 211 4.0 12.0 0.00 0.00 0.00 38 1008.4
20260504174704 69 221 5.0 10.0 0.00 0.00 0.00 39 1008.6
20260504174204 69 196 3.0 17.0 0.00 0.00 0.00 38 1008.5
20260504173704 69 202 5.0 17.0 0.00 0.00 0.00 40 1008.8
20260504173204 67 217 5.0 10.0 0.00 0.00 0.00 38 1008.8
20260504172704 67 211 6.0 16.0 0.00 0.00 0.00 39 1009.0
20260504172204 68 230 6.0 13.0 0.00 0.00 0.00 39 1009.1
20260504171204 68 222 5.0 9.0 0.00 0.00 0.00 40 1009.0
20260504170204 67 198 6.0 16.0 0.00 0.00 0.00 38 1009.2
20260504160205 65 204 5.0 12.0 0.00 0.00 0.00 41 1009.8
20260504150704 63 214 6.0 12.0 0.00 0.00 0.00 42 1010.4
20260504141204 60 205 5.0 9.0 0.00 0.00 0.00 44 1011.0
20260504140705 60 206 6.0 12.0 0.00 0.00 0.00 45 1011.2
20260504140204 59 220 3.0 10.0 0.00 0.00 0.00 44 1011.1
20260504130704 57 200 4.0 10.0 0.00 0.00 0.00 49 1011.2
20260504130203 57 202 3.0 10.0 0.00 0.00 0.00 50 1011.3
20260504120204 50 298 0.0 1.0 0.00 0.00 0.00 71 1011.8
20260504110704 41 298 0.0 0.0 0.00 0.00 0.00 83 1011.9
20260504110204 40 298 0.0 0.0 0.00 0.00 0.00 84 1011.9
20260504100203 37 298 0.0 0.0 0.00 0.00 0.00 84 1011.7
20260504081703 38 298 0.0 0.0 0.00 0.00 0.00 83 1011.5
20260504081203 38 298 0.0 0.0 0.00 0.00 0.00 82 1011.5
20260504080703 38 298 0.0 0.0 0.00 0.00 0.00 82 1011.5
20260504080205 38 298 0.0 0.0 0.00 0.00 0.00 82 1011.5
20260504070204 38 298 0.0 0.0 0.00 0.00 0.00 81 1011.4
20260504060203 40 298 0.0 0.0 0.00 0.00 0.00 78 1011.4
20260504050704 40 298 0.0 0.0 0.00 0.00 0.00 77 1011.7
20260504050203 40 298 0.0 0.0 0.00 0.00 0.00 77 1011.7
20260504045204 39 298 0.0 0.0 0.00 0.00 0.00 77 1011.7
20260504044704 39 298 0.0 0.0 0.00 0.00 0.00 77 1011.8
20260504044203 39 298 0.0 0.0 0.00 0.00 0.00 78 1011.7
20260504043704 39 298 0.0 0.0 0.00 0.00 0.00 78 1011.8
20260504043204 39 298 0.0 0.0 0.00 0.00 0.00 78 1011.8
20260504042703 39 298 0.0 0.0 0.00 0.00 0.00 78 1011.8
20260504042203 38 298 0.0 0.0 0.00 0.00 0.00 79 1011.8
20260504041204 38 298 0.0 0.0 0.00 0.00 0.00 78 1011.8
20260504040704 38 298 0.0 0.0 0.00 0.00 0.00 78 1011.6
20260504040204 38 298 0.0 0.0 0.00 0.00 0.00 79 1011.6
20260504035704 37 298 0.0 0.0 0.00 0.00 0.00 79 1011.6
20260504035204 37 298 0.0 0.0 0.00 0.00 0.00 78 1011.6
20260504034704 37 298 0.0 0.0 0.00 0.00 0.00 78 1011.6
20260504034204 37 298 0.0 0.0 0.00 0.00 0.00 78 1011.5
20260504033703 37 298 0.0 0.0 0.00 0.00 0.00 78 1011.5
20260504033205 37 298 0.0 0.0 0.00 0.00 0.00 77 1011.4
20260504032704 37 298 0.0 0.0 0.00 0.00 0.00 77 1011.5
20260504032204 37 298 0.0 0.0 0.00 0.00 0.00 77 1011.5
20260504031705 37 298 0.0 0.0 0.00 0.00 0.00 77 1011.4
20260504031203 38 298 0.0 0.0 0.00 0.00 0.00 77 1011.4
20260504030704 38 298 0.0 0.0 0.00 0.00 0.00 77 1011.3
20260504030204 38 298 0.0 0.0 0.00 0.00 0.00 76 1011.3
20260504025704 39 298 0.0 0.0 0.00 0.00 0.00 75 1011.2
20260504025204 39 298 0.0 0.0 0.00 0.00 0.00 75 1011.2
20260504024704 39 298 0.0 0.0 0.00 0.00 0.00 75 1011.2
20260504024204 39 298 0.0 0.0 0.00 0.00 0.00 76 1011.2
20260504023703 40 298 0.0 0.0 0.00 0.00 0.00 75 1011.3
20260504022704 40 298 0.0 0.0 0.00 0.00 0.00 73 1011.4
20260504022203 40 298 0.0 0.0 0.00 0.00 0.00 73 1011.4
20260504021704 41 298 0.0 0.0 0.00 0.00 0.00 72 1011.4
20260504021204 41 298 0.0 0.0 0.00 0.00 0.00 71 1011.4
20260504020704 42 298 0.0 0.0 0.00 0.00 0.00 69 1011.3
20260504015704 42 298 0.0 0.0 0.00 0.00 0.00 69 1011.3
20260504015204 42 298 0.0 0.0 0.00 0.00 0.00 70 1011.2
20260504014704 42 298 0.0 0.0 0.00 0.00 0.00 69 1011.1
20260504013704 43 298 0.0 0.0 0.00 0.00 0.00 66 1011.1
20260504013204 44 298 0.0 0.0 0.00 0.00 0.00 65 1011.0
20260504011204 46 298 0.0 0.0 0.00 0.00 0.00 62 1010.8
20260504010704 47 298 0.0 0.0 0.00 0.00 0.00 60 1010.8
20260504010204 48 298 0.0 0.0 0.00 0.00 0.00 57 1010.7
20260504005704 49 298 0.0 2.0 0.00 0.00 0.00 51 1010.6
20260504005204 50 298 0.0 0.0 0.00 0.00 0.00 46 1010.6
20260504004704 50 298 1.0 3.0 0.00 0.00 0.00 45 1010.5
20260504004203 51 300 0.0 3.0 0.00 0.00 0.00 45 1010.5
20260504003704 51 300 1.0 2.0 0.00 0.00 0.00 44 1010.5
20260504003204 51 300 1.0 3.0 0.00 0.00 0.00 43 1010.4
20260504002703 51 300 1.0 3.0 0.00 0.00 0.00 43 1010.3